Home > Weather > Bucharest > Past weeks

Flag for Romania Weather for the Past 2 Weeks in Bucharest, Romania

Now
41 °F

Passing clouds.


Feels Like: 34 °F
Forecast: 37 / 50 °F
Wind: 12 mph from West

Location: Bucharest / Imh

Current Time: Feb 11, 2016 at 7:18:26 AM

Latest Report: Feb 11, 2016 at 6:30 AM


Visibility: N/A

Pressure: 29.59 "Hg

Humidity: 93%

Dew point: 39 °F

Location of BucharestLocation

Historic Weather in Bucharest — Graph

°F

Bucharest Temperature Yesterday

Maximum temperature yesterday: 54 °F (at 9:00 PM)
Minimum temperature yesterday: 30 °F (at 5:00 AM)
Average temperature yesterday: 42 °F

High & Low Weather Summary for the Past Weeks

 TemperatureHumidityPressure
High63 °F (Feb 3, 3:30 PM)100% (Jan 27, 8:00 AM)30.45 "Hg (Jan 27, 8:00 AM)
Low23 °F (Feb 7, 7:00 AM)42% (Feb 7, 1:00 PM)29.45 "Hg (Feb 10, 8:00 PM)
Average39 °F87%30.12 "Hg
* Reported Jan 27 6:00 AM — Feb 11 5:30 AM, Bucharest, Weather by CustomWeather, © 2016

Note: Actual official high and low records may vary slightly from our data, if they occured in-between our weather recording intervals... More about our weather records

Advertising

Bucharest Weather History for the Previous 24 Hours

 ConditionsComfort  
Time TempWeatherWind HumidityBarometerVisibility
5:30 AM
Thu, Feb 11
43 °FPassing clouds.15 mph87%29.56 "HgN/A
4:30 AM43 °FPassing clouds.17 mph93%29.56 "HgN/A
4:00 AM43 °FPassing clouds.17 mph93%29.56 "HgN/A
3:30 AM45 °FPassing clouds.18 mph87%29.53 "HgN/A
2:30 AM45 °FLight rain. Passing clouds.12 mph93%29.50 "HgN/A
1:30 AM45 °FLight rain. Passing clouds.13 mph100%29.47 "Hg5 mi
1:00 AM46 °FLight rain. Passing clouds.15 mph93%29.47 "HgN/A
12:30 AM50 °FLight rain. Passing clouds.8 mph88%29.47 "HgN/A
11:30 PM
Wed, Feb 10
52 °FLight rain. Passing clouds.6 mph82%29.45 "HgN/A
11:00 PM52 °FPassing clouds.6 mph82%29.47 "HgN/A
10:30 PM54 °FLight rain. Passing clouds.8 mph77%29.45 "HgN/A
10:00 PM54 °FPassing clouds.10 mph72%29.45 "HgN/A
9:30 PM54 °FPassing clouds.9 mph72%29.45 "HgN/A
9:00 PM54 °FLight rain. Clear.8 mph72%29.45 "HgN/A
8:30 PM52 °FPassing clouds.6 mph82%29.45 "HgN/A
8:00 PM45 °FClear.3 mph100%29.45 "Hg5 mi
7:30 PM46 °FClear.2 mph93%29.47 "Hg5 mi
7:00 PM46 °FClear.2 mph93%29.47 "Hg10 mi
6:30 PM46 °FClear.3 mph93%29.47 "Hg5 mi
6:00 PM48 °FClear.3 mph94%29.50 "Hg5 mi
5:30 PM48 °FSunny.5 mph94%29.50 "Hg10 mi
5:00 PM50 °FPassing clouds.3 mph88%29.50 "HgN/A
4:30 PM50 °FSunny.5 mph88%29.53 "Hg10 mi
4:00 PM50 °FPassing clouds.7 mph88%29.53 "HgN/A
3:30 PM50 °FSunny.7 mph82%29.53 "Hg10 mi
3:00 PM50 °FPassing clouds.7 mph82%29.56 "HgN/A
2:30 PM50 °FPassing clouds.7 mph82%29.56 "HgN/A
2:00 PM48 °FPassing clouds.6 mph87%29.59 "HgN/A
1:30 PM46 °FClear.8 mph87%29.59 "Hg5 mi
1:00 PM45 °FPassing clouds.6 mph93%29.59 "HgN/A
12:30 PM45 °FClear.6 mph87%29.62 "Hg5 mi
12:00 PM43 °FClear.5 mph93%29.65 "Hg5 mi
11:30 AM43 °FClear.3 mph87%29.68 "Hg5 mi
11:00 AM43 °FClear.3 mph87%29.65 "Hg5 mi
10:30 AM39 °FClear.3 mph100%29.68 "Hg4 mi
10:00 AM39 °FClear.5 mph93%29.68 "Hg4 mi
9:30 AM37 °FFog.3 mph93%29.68 "Hg3 mi
9:00 AM36 °FFog.5 mph93%29.68 "Hg2 mi
8:30 AM34 °FFog.2 mph93%29.71 "Hg2 mi
8:00 AM32 °FIce fog.2 mph93%29.74 "Hg2 mi
7:30 AM30 °FIce fog.8 mph93%29.71 "Hg2 mi
7:00 AM30 °FIce fog.3 mph93%29.74 "Hg1 mi
Weather by CustomWeather, © 2016

See weather overviewHow to use our weather pages